Weather Roundup
Issued by NWS

Home | Current Version | Previous Version | Text Only | Print | Product List | Glossary On
Versions: 1 2 3 4 5 6 7 8 9 10 11 12 13 14 15 16 17 18 19 20 21 22 23 24 25 26 27 28 29 30 31 32 33 34 35 36 37 38 39 40 41 42 43 44 45 46 47 48 49 50
000
NZUS93 KARX 230110
HRRWXR

CURRENT HOURLY OBSERVATIONS ACROSS
MUCH OF THE UPPER MISSISSIPPI VALLEY
NATIONAL WEATHER SERVICE LA CROSSE WI
800 PM CDT FRI AUG 22 2014


...SOUTHEAST MINNESOTA...


CITY           SKY/WX    TMP DP  RH WIND       PRES   REMARKS
ROCHESTER      PTCLDY    76  69  79 N6        29.99R
ROCHESTER/MAYO FAIR      79  68  69 N8        29.98R
WINONA         CLEAR     79  70  73 CALM      29.96R
AUSTIN         PTCLDY    77  70  78 N3        29.98R
ALBERT LEA     PTCLDY    77  70  78 N3        29.98R
DODGE CENTER   PTCLDY    75  72  88 N6        29.99R
PRESTON        PTCLDY    76  74  94 N6        29.98S
OWATONNA       CLEAR     77  70  78 N7        29.99R
FARIBAULT      CLEAR     77  66  69 N5        29.99S
$$

...ELSEWHERE IN MINNESOTA...


CITY           SKY/WX    TMP DP  RH WIND       PRES   REMARKS
MINNEAPOLIS    MOCLDY    75  67  76 VRB7      29.99R
INTNL FALLS    PTCLDY    69  65  86 NE3       30.03R
DULUTH         FOG       63  60  90 E7        30.04S VSB 1
RED WING       CLEAR     75  68  78 N3        29.97R
REDWOOD FALLS  PTCLDY    81  68  64 CALM      29.97S
MANKATO        CLEAR     75  66  73 NE8       29.98S
WORTHINGTON      N/A     75  72  88 E6        30.01R
FAIRMONT       CLEAR     70  63  78 N5        29.99R
$$

...SOUTHWEST WISCONSIN...


CITY           SKY/WX    TMP DP  RH WIND       PRES   REMARKS
LA CROSSE      PTCLDY    81  73  76 N7        29.93R
PRAIRIE DU CHI PTCLDY    82  75  79 SW3       29.92R
BOSCOBEL       PTCLDY    82  76  81 CALM      29.93R
LONE ROCK      PTCLDY    85  76  74 CALM      29.93R HX  94
PLATTEVILLE    MOCLDY    81  77  89 CALM      29.96R
FORT MC COY    CLEAR     78  74  88 CALM      29.95S
CAMP DOUGLAS   CLEAR     77  77 100 CALM      29.95R
VIROQUA        FAIR      78  77  96 N3        29.97R
WIS DELLS      PTCLDY    81  74  79 CALM      29.94S
$$

...ELSEWHERE IN WISCONSIN...


CITY           SKY/WX    TMP DP  RH WIND       PRES   REMARKS
MILWAUKEE      FOG       70  69  97 E7        29.97S VSB 3/4
MADISON        PTCLDY    80  74  81 CALM      29.93S
GREEN BAY      MOCLDY    74  70  87 E7        29.97R
EAU CLAIRE     CLEAR     76  71  85 N8        29.97R
BLACK RVR FLS  FAIR      80  70  71 CALM      29.95R
MEDFORD        CLOUDY    73  71  95 NE5       30.00S FOG
WAUSAU         MOCLDY    76  72  87 NE7       29.97R
WIS RAPIDS     PTCLDY    80  74  81 CALM      29.97R
MARSHFIELD     PTCLDY    78  71  79 CALM      29.97R
RICE LAKE      CLOUDY    72  68  88 N6        30.01S
$$

...NORTHEAST IOWA...


CITY           SKY/WX    TMP DP  RH WIND       PRES   REMARKS
WATERLOO       MOCLDY    77  71  82 CALM      29.94R
DUBUQUE        MOCLDY    79  78  97 S6        29.96R FOG
DECORAH        PTCLDY    81  75  83 CALM      29.95R
MASON CITY     MOCLDY    79  73  82 NE5       29.98R
CHARLES CITY   PTCLDY    79  75  89 CALM      29.96R
OELWEIN        MOCLDY    79  75  89 CALM      29.96R
$$

...ELSEWHERE IN IOWA...


CITY           SKY/WX    TMP DP  RH WIND       PRES   REMARKS
DES MOINES     CLOUDY    82  74  76 CALM      29.93R
IOWA CITY      PTCLDY    80  77  90 CALM      29.95R
FORT DODGE     CLOUDY    79  73  83 S8        29.98R THUNDER
MARSHALLTOWN   CLOUDY    81  76  84 CALM      29.93S
CEDAR RAPIDS   MOCLDY    78  76  93 S3        29.94R
$$

...NORTHERN ILLINOIS...


CITY           SKY/WX    TMP DP  RH WIND       PRES   REMARKS
CHICAGO-OHARE  MOCLDY    82  71  69 N5        29.95R
DUPAGE         MOCLDY    80  74  81 CALM      29.95S
CHICAGO-MIDWAY MOCLDY    82  74  76 W5        29.95R
MOLINE         PTCLDY    81  75  82 SW3       29.94R
ROCKFORD       MOCLDY    79  74  84 CALM      29.95S
STERLING       CLOUDY    81  75  83 CALM      29.95R
PEORIA         MOCLDY    82  76  81 CALM      29.95R
$$

NOTE: "FAIR" INDICATES FEW OR NO CLOUDS BELOW 12,000 FEET WITH NO
SIGNIFICANT WEATHER AND/OR OBSTRUCTIONS TO VISIBILITY. WIND
SPEEDS ARE IN MILES-PER-HOUR.



USA.gov is the U.S. government's official web portal to all federal, state and local government web resources and services.